LIPOLIPZ

Guest
Details From LIPO - Montichiari
To LIPZ - Venezia Tessera
Flight Number -
Tags Generated
Created
Modified
Stats Distance 85 nm / 158 km
Max Altitude 0 ft / 0 m
Waypoints 2
Social Downloads 0
Likes 0
Share VATSIM

Download

Looking for another format? Having issues loading an existing format? Contact us
Advertisement - Login to hide

Notes

Generated

Route

LIPO LIPZ

ID Type Via Altitude Latitude Longitude Leg Dist Tot Dist Heading (true) Name
O LIPO APT - 0 ft / 0 m 45.43832˚ 10.31796˚ - 0 nm - -
O LIPZ APT - 0 ft / 0 m 45.49516˚ 12.33556˚ 85 nm 85 nm 87° / 88° -

Altitude Profile

Advertisement - Login to hide

LIPO

Details ICAO LIPO (VBS)
Name Montichiari
Region Italy
Timezone Europe/Rome (UTC+1.0)
Stats Elevation 344 ft / 105 m (AMSL)
Location 45.428548° 10.331283°
Runways 1
Magnetic Variation 2.739° E

METAR

LIPO 161050Z 19001KT CAVOK 06/04 Q1008

Decode

TAF

TAF LIPO 160500Z 1606/1706 29006KT 5000 BR NSC

Decode

Departure Runways

ID Width Length Bearing (true) Bearing (mag) Surface Threshold Offset Overrun Length
14 154 ft / 47 m 9,821 ft / 2,993 m 134.99° 132.25° Asphalt 984 ft / 300 m 0 ft / 0 m
32 154 ft / 47 m 9,821 ft / 2,993 m 315.01° 312.27° Asphalt 623 ft / 190 m 0 ft / 0 m

LIPZ

Details ICAO LIPZ (VCE)
Name Venezia Tessera
Region Italy
Timezone Europe/Rome (UTC+1.0)
Stats Elevation 7 ft / 2 m (AMSL)
Location 45.504791° 12.349691°
Runways 2
Magnetic Variation 3.180° E

METAR

LIPZ 161120Z 35008KT 240V020 CAVOK 07/04 Q1007 NOSIG

Decode

TAF

TAF LIPZ 160500Z 1606/1712 01010KT 7000 SCT060 TEMPO 1606/1608 4000 SHRA BECMG 1701/1703 VRB05KT

Decode

Destination Runways

ID Width Length Bearing (true) Bearing (mag) Surface Threshold Offset Overrun Length
04L 148 ft / 45 m 9,112 ft / 2,777 m 42.01° 38.83° Asphalt 312 ft / 95 m 0 ft / 0 m
04R 148 ft / 45 m 10,834 ft / 3,302 m 41.99° 38.81° Asphalt 0 ft / 0 m 0 ft / 0 m
22L 148 ft / 45 m 10,834 ft / 3,302 m 222.01° 218.83° Asphalt 0 ft / 0 m 0 ft / 0 m
22R 148 ft / 45 m 9,112 ft / 2,777 m 222.02° 218.84° Asphalt 0 ft / 0 m 0 ft / 0 m

Approach Navaids

Runway Type Ident Frequency Range Bearing (true) Bearing (mag) Slope Elevation
04R Localiser VTS 109.95 MHz 18 nm / 33 km 42.02° 38.84° - 13 ft / 4 m (AMSL)
04R Glidescope VTS 109.95 MHz 10 nm / 19 km 42.00° 38.82° 3.00° 52 ft / 16 m (AMSL)
04R DME VTS 109.95 MHz 18 nm / 33 km - - - 26 ft / 8 m (AMSL)

Popular Alternatives